星链-35429(STARLINK-35429)

导读

STARLINK-35429是美国于2025年11月22日发射的星链卫星,隶属于SpaceX公司主导的星链(Starlink)项目,该项目旨在构建全球卫星互联网星座,为全球偏远地区、海洋空域等提供高速低延迟的宽带互联网服务,此卫星是星链星座扩容进程中的一员,用于补充完善星座覆盖密度与服务能力。

Basic Information
目录编号:
66590
目录名称:
STARLINK-35429
国际标识:
2025-270C
轨道中心:
EARTH
卫星名称:
星链-35429
卫星全名:
星链-35429(STARLINK-35429)
卫星状态:
在轨 (已飞行287 天)
发射日期:
2025-11-22 UTC
国别 :
美国 (US)
星等 :
--
Orbit Information
数据来源 国际轨道数据 AOE轨道数据
星历时间 2026-09-05T09:26:44+0800
17小时前
查看轨道信息
2026-09-01T23:00:00+0800
4天前
查看轨道信息
半长轴 6861.162km 6861.105km
偏心率 0.0001695 0.0001572
轨道倾角 43.002° 43.000°
近地点辐角 269.627° 267.011°
升交点赤经 123.592° 142.995°
平近点角 90.439° 259.613°
近地点 481.862km 481.889km
远地点 484.188km 484.047km
周期 94.266分钟 94.265分钟
每日圈数 15.275881 15.276071
Detailed Information
固有亮度:
5
最大亮度:
2.5
卫星平台:
Starlink V1.0
覆盖范围:
全球
运营商:
太空探索技术公司
运营商所在国:
美国
制造商(研发单位):
太空探索技术公司
制造商所在国:
美国
使用方式:
暂无
Satellite Introduction
Starlink 计划是 SpaceX 推出的全球卫星互联网项目,通过发射低轨道卫星,为全球尤其是偏远地区提供高速、低延迟的互联网服务。自 2019 年起,Starlink 已部署数千颗卫星,旨在缩小全球数字鸿沟,推动互联网普及。该项目还为军事、航空等行业提供通信支持,带来广泛经济效益。
2D Orbit Map
3D Orbit Map
Orbit Altitude Analysis Chart
Orbit Inclination Analysis Chart
Orbit Comprehensive Analysis Chart
View Comprehensive Chart
Conjunction Data List
Event ID Objects TCA Miss Dist (km) Collision Risk Probability Collision Risk Index (CRI) Action
CDM_260830-221106-659006-978621
2026-08-30T
22:11:56+0000
2.229 km
极远距离
1.855699E-6 低风险 0.4
CDM_260830-135905-315606-659021
2026-08-30T
13:59:40+0000
2.570 km
极远距离
9.203631E-7 极低风险 0.34